• In Moldova, Republic
  • List of Countries
  • For 7 days
  • Water Temperature
  • Satellite Maps
  • Weather Map
  • Weather Widgets
  • user-avatar
    Login

    Hourly Weather Kalgoorlie

    Today, 22 May, Wednesday

    Time Temperature Precipitation Wind Pressure Humidity
    00:00 +17°C° 0 mm 3 mps 735 mmHg 67%
    01:00 +17°C° 0 mm 3 mps 735 mmHg 68%
    02:00 +17°C° 0 mm 3 mps 735 mmHg 70%
    03:00 +16°C° 0 mm 3 mps 735 mmHg 71%
    04:00 +16°C° 0 mm 3 mps 735 mmHg 72%
    05:00 +16°C° 0 mm 3 mps 735 mmHg 72%
    06:00 +15°C° 0 mm 4 mps 735 mmHg 69%
    07:00 +17°C° 0 mm 4 mps 735 mmHg 66%
    08:00 +17°C° 0 mm 7 mps 735 mmHg 57%
    09:00 +20°C° 0 mm 7 mps 735 mmHg 48%
    10:00 +22°C° 0 mm 7 mps 735 mmHg 39%
    11:00 +24°C° 0 mm 7 mps 734 mmHg 30%
    12:00 +26°C° 0 mm 6 mps 734 mmHg 26%
    13:00 +28°C° 0 mm 6 mps 733 mmHg 23%
    14:00 +29°C° 0 mm 6 mps 733 mmHg 18%
    15:00 +28°C° 0 mm 5 mps 732 mmHg 20%
    16:00 +27°C° 0 mm 4 mps 732 mmHg 21%
    17:00 +26°C° 0 mm 3 mps 732 mmHg 23%
    18:00 +25°C° 0 mm 2 mps 732 mmHg 24%
    19:00 +24°C° 0 mm 2 mps 732 mmHg 25%
    20:00 +23°C° 0 mm 2 mps 732 mmHg 26%
    21:00 +21°C° 0 mm 2 mps 732 mmHg 27%
    22:00 +21°C° 0 mm 3 mps 732 mmHg 28%
    23:00 +20°C° 0 mm 3 mps 733 mmHg 29%

    Tomorrow, 23 May, Thursday

    Time Temperature Precipitation Wind Pressure Humidity
    00:00 +19°C° 0 mm 3 mps 732 mmHg 34%
    01:00 +18°C° 0 mm 3 mps 732 mmHg 39%
    02:00 +17°C° 0 mm 3 mps 732 mmHg 43%
    03:00 +17°C° 0 mm 3 mps 732 mmHg 48%
    04:00 +16°C° 0 mm 3 mps 733 mmHg 53%
    05:00 +16°C° 0 mm 3 mps 733 mmHg 58%
    06:00 +16°C° 0 mm 3 mps 733 mmHg 60%
    07:00 +15°C° 0 mm 4 mps 734 mmHg 62%
    08:00 +15°C° 0 mm 4 mps 734 mmHg 63%
    09:00 +18°C° 0 mm 4 mps 734 mmHg 58%
    10:00 +20°C° 0 mm 4 mps 735 mmHg 52%
    11:00 +22°C° 0 mm 4 mps 735 mmHg 46%
    12:00 +22°C° 0 mm 4 mps 734 mmHg 43%
    13:00 +23°C° 0 mm 5 mps 734 mmHg 40%
    14:00 +25°C° 0 mm 5 mps 734 mmHg 37%
    15:00 +23°C° 0 mm 5 mps 734 mmHg 41%
    16:00 +21°C° 0 mm 5 mps 734 mmHg 45%
    17:00 +20°C° 0 mm 5 mps 734 mmHg 48%
    18:00 +19°C° 0 mm 4 mps 734 mmHg 52%
    19:00 +18°C° 0 mm 4 mps 735 mmHg 55%
    20:00 +17°C° 0 mm 3 mps 735 mmHg 59%
    21:00 +16°C° 0 mm 3 mps 735 mmHg 60%
    22:00 +16°C° 0 mm 3 mps 735 mmHg 60%
    23:00 +16°C° 0 mm 3 mps 735 mmHg 61%

    Day after tomorrow, 24 May, Friday

    Time Temperature Precipitation Wind Pressure Humidity
    00:00 +14°C° 0 mm 3 mps 735 mmHg 62%
    01:00 +14°C° 0 mm 3 mps 735 mmHg 63%
    02:00 +13°C° 0 mm 3 mps 735 mmHg 63%
    03:00 +13°C° 0 mm 3 mps 735 mmHg 64%
    04:00 +13°C° 0 mm 3 mps 734 mmHg 64%
    05:00 +12°C° 0 mm 3 mps 734 mmHg 64%
    06:00 +13°C° 0 mm 3 mps 735 mmHg 63%
    07:00 +13°C° 0 mm 3 mps 735 mmHg 61%
    08:00 +13°C° 0 mm 3 mps 735 mmHg 60%
    09:00 +16°C° 0 mm 3 mps 735 mmHg 53%
    10:00 +17°C° 0 mm 2 mps 735 mmHg 47%
    11:00 +19°C° 0 mm 2 mps 735 mmHg 41%
    12:00 +20°C° 0 mm 2 mps 735 mmHg 37%
    13:00 +21°C° 0 mm 1 mps 734 mmHg 33%
    14:00 +22°C° 0 mm 1 mps 734 mmHg 29%
    15:00 +22°C° 0 mm 1 mps 734 mmHg 31%
    16:00 +21°C° 0 mm 1 mps 734 mmHg 32%
    17:00 +20°C° 0 mm 1 mps 734 mmHg 33%
    18:00 +20°C° 0 mm 1 mps 734 mmHg 35%
    19:00 +18°C° 0 mm 2 mps 734 mmHg 37%
    20:00 +17°C° 0 mm 2 mps 735 mmHg 38%
    21:00 +17°C° 0 mm 3 mps 735 mmHg 40%
    22:00 +16°C° 0 mm 3 mps 735 mmHg 42%
    23:00 +15°C° 0 mm 4 mps 735 mmHg 44%

    25 May, Saturday

    Time Temperature Precipitation Wind Pressure Humidity
    00:00 +14°C° 0 mm 4 mps 735 mmHg 50%
    01:00 +13°C° 0 mm 4 mps 735 mmHg 55%
    02:00 +13°C° 0 mm 4 mps 735 mmHg 60%
    03:00 +12°C° 0 mm 4 mps 735 mmHg 64%
    04:00 +12°C° 0 mm 4 mps 735 mmHg 69%
    05:00 +12°C° 0 mm 3 mps 735 mmHg 73%
    06:00 +12°C° 0 mm 3 mps 735 mmHg 73%
    07:00 +12°C° 0 mm 3 mps 735 mmHg 73%
    08:00 +12°C° 0 mm 3 mps 736 mmHg 73%
    09:00 +14°C° 0 mm 3 mps 736 mmHg 67%
    10:00 +16°C° 0 mm 3 mps 736 mmHg 62%
    11:00 +18°C° 0 mm 3 mps 736 mmHg 56%
    12:00 +18°C° 0 mm 3 mps 736 mmHg 52%
    13:00 +19°C° 0 mm 3 mps 735 mmHg 49%
    14:00 +20°C° 0 mm 3 mps 735 mmHg 45%
    15:00 +19°C° 0 mm 3 mps 735 mmHg 46%
    16:00 +19°C° 0 mm 3 mps 735 mmHg 47%
    17:00 +18°C° 0 mm 3 mps 735 mmHg 47%
    18:00 +17°C° 0 mm 4 mps 735 mmHg 53%
    19:00 +15°C° 0 mm 5 mps 736 mmHg 58%
    20:00 +14°C° 0 mm 5 mps 736 mmHg 63%
    21:00 +14°C° 0 mm 5 mps 737 mmHg 65%
    22:00 +13°C° 0 mm 4 mps 737 mmHg 67%
    23:00 +13°C° 0 mm 4 mps 737 mmHg 69%

    26 May, Sunday

    Time Temperature Precipitation Wind Pressure Humidity
    00:00 +12°C° 0 mm 4 mps 737 mmHg 72%
    01:00 +12°C° 0 mm 3 mps 737 mmHg 74%
    02:00 +12°C° 0 mm 3 mps 736 mmHg 77%
    03:00 +11°C° 0 mm 3 mps 736 mmHg 78%
    04:00 +11°C° 0 mm 3 mps 736 mmHg 79%
    05:00 +10°C° 0 mm 3 mps 737 mmHg 80%
    06:00 +11°C° 0 mm 3 mps 737 mmHg 78%
    07:00 +11°C° 0 mm 3 mps 737 mmHg 76%
    08:00 +11°C° 0 mm 3 mps 738 mmHg 74%
    09:00 +13°C° 0 mm 3 mps 738 mmHg 68%
    10:00 +14°C° 0 mm 3 mps 738 mmHg 61%
    11:00 +16°C° 0 mm 3 mps 737 mmHg 55%
    12:00 +17°C° 0 mm 3 mps 737 mmHg 52%
    13:00 +18°C° 0 mm 2 mps 736 mmHg 49%
    14:00 +18°C° 0 mm 2 mps 736 mmHg 46%
    15:00 +18°C° 0 mm 2 mps 736 mmHg 47%
    16:00 +18°C° 0 mm 3 mps 736 mmHg 48%
    17:00 +17°C° 0 mm 3 mps 736 mmHg 49%
    18:00 +16°C° 0 mm 3 mps 737 mmHg 51%
    19:00 +16°C° 0 mm 3 mps 737 mmHg 54%
    20:00 +14°C° 0 mm 3 mps 737 mmHg 56%
    21:00 +14°C° 0 mm 3 mps 737 mmHg 58%
    22:00 +13°C° 0 mm 3 mps 737 mmHg 60%
    23:00 +14°C° 0 mm 2 mps 737 mmHg 62%

    27 May, Monday

    Time Temperature Precipitation Wind Pressure Humidity
    00:00 +13°C° 0 mm 2 mps 737 mmHg 64%
    01:00 +13°C° 0 mm 2 mps 737 mmHg 66%
    02:00 +12°C° 0 mm 1 mps 737 mmHg 68%
    03:00 +12°C° 0 mm 1 mps 737 mmHg 70%
    04:00 +11°C° 0 mm 1 mps 737 mmHg 71%
    05:00 +11°C° 0 mm 1 mps 737 mmHg 73%
    06:00 +12°C° 0 mm 2 mps 737 mmHg 70%
    07:00 +12°C° 0 mm 2 mps 737 mmHg 67%
    08:00 +13°C° 0 mm 2 mps 738 mmHg 64%
    09:00 +14°C° 0 mm 2 mps 737 mmHg 59%
    10:00 +15°C° 0 mm 2 mps 737 mmHg 53%
    11:00 +18°C° 0 mm 1 mps 737 mmHg 48%
    12:00 +18°C° 0 mm 1 mps 736 mmHg 44%
    13:00 +19°C° 0 mm 1 mps 736 mmHg 40%
    14:00 +20°C° 0 mm 1 mps 735 mmHg 36%
    15:00 +19°C° 0 mm 1 mps 735 mmHg 37%
    16:00 +19°C° 0 mm 1 mps 735 mmHg 38%
    17:00 +18°C° 0 mm 2 mps 735 mmHg 39%
    18:00 +17°C° 0 mm 2 mps 736 mmHg 41%
    19:00 +16°C° 0 mm 2 mps 736 mmHg 42%
    20:00 +16°C° 0 mm 2 mps 736 mmHg 44%
    21:00 +15°C° 0 mm 2 mps 736 mmHg 46%
    22:00 +14°C° 0 mm 2 mps 736 mmHg 48%
    23:00 +14°C° 0 mm 1 mps 737 mmHg 50%
    Show more